Regional Weather Roundup
Issued by NWS State College, PA

Home | Current Version | Previous Version | Text Only | Print | Product List | Glossary Off
Versions: 1 2 3 4 5 6 7 8 9 10 11 12 13 14 15 16 17 18 19 20 21 22 23 24 25 26 27 28 29 30 31 32 33 34 35 36 37 38 39 40 41 42 43 44 45 46 47 48 49 50

000
ASUS41 KCTP 281503
RWRCTP

REGIONAL WEATHER ROUNDUP
NATIONAL WEATHER SERVICE STATE COLLEGE PA
1100 AM EDT SAT MAY 28 2016

Note: "fair" indicates few or no clouds below 12,000 feet with no
significant weather and/or obstructions to visibility.

* = STATION THAT DOES NOT REPORT PRECIPITATION /E.G. RAIN...SNOW...ETC/
    THUNDER OR FOG.

PAZ002>004-007>009-013>016-020>023-029>032-281600-
WESTERN PENNSYLVANIA

CITY           SKY/WX    TMP DP  RH WIND       PRES   REMARKS
ERIE           MOSUNNY   85  67  54 CALM      30.10S
MEADVILLE      SUNNY     79  65  62 SW6       30.15R
FRANKLIN*      SUNNY     81  66  61 S6        30.18S
NEW CASTLE     FAIR      82  67  60 SE7       30.14S
BEAVER COUNTY  SUNNY     81  66  61 S6        30.15S
BUTLER*        SUNNY     81  64  57 SW5       30.18S
PITTSBURGH INT MOSUNNY   81  63  54 S7        30.15S
PITTSBURGH     SUNNY     79  65  62 S5        30.16S
INDIANA*       SUNNY     81  68  65 W6        30.21R
LATROBE        SUNNY     81  66  61 SW12      30.18R
WASHINGTON CO* SUNNY     79  66  65 SW9       30.18R
$$

PAZ004>006-010>012-017>019-024>028-033>037-041-042-045-046-049>053-281600-
CENTRAL PENNSYLVANIA

CITY           SKY/WX    TMP DP  RH WIND       PRES   REMARKS
BRADFORD       MOSUNNY   79  62  56 CALM      30.19R
DUBOIS         MOSUNNY   79  65  62 SW6       30.18R
CLEARFIELD     SUNNY     80  65  59 VRB5      30.18S
JOHNSTOWN      SUNNY     77  60  55 VRB3      30.21S
ALTOONA        SUNNY     80  63  55 CALM      30.19S
STATE COLLEGE  SUNNY     81  68  65 CALM      30.16F
WILLIAMSPORT   SUNNY     80  66  62 CALM      30.13S
SELINSGROVE    SUNNY     82  67  60 VRB6      30.14S
FT INDIANTOWN  SUNNY     79  69  70 S6        30.15S
CAPITAL CITY   SUNNY     82  69  64 E3        30.14F
HARRISBURG     MOSUNNY   82  69  64 SE3       30.14S
YORK           SUNNY     82  69  64 SW5       30.15S
$$

PAZ038>040-043-044-047-048-054-055-060>062-067>071-281600-
EASTERN PENNSYLVANIA

CITY           SKY/WX    TMP DP  RH WIND       PRES   REMARKS
SCRANTON       SUNNY     83  67  58 SW5       30.14F
MOUNT POCONO   MOSUNNY   82  61  48 W7        30.20S
ALLENTOWN      SUNNY     82  68  62 SW7       30.14F
QUAKERTOWN*    SUNNY     82  68  61 CALM      30.17S
READING        SUNNY     83  67  58 VRB3      30.13F
LANCASTER      SUNNY     81  68  64 N3        30.15F
COATESVILLE    SUNNY     81  68  65 VRB3      30.19S
POTTSTOWN      SUNNY     81  69  67 CALM      30.16F
BLUE BELL      SUNNY     81  68  65 CALM      30.15S
DOYLESTOWN     SUNNY     80  66  62 VRB3      30.15S
WILLOW GROVE   NOT AVBL
NORTH PHILA    SUNNY     83  67  58 SW5       30.17S
PHILADELPHIA   MOSUNNY   81  64  56 SW7       30.16S
$$




USA.gov is the U.S. government's official web portal to all federal, state and local government web resources and services.